Regional Weather Roundup
Issued by NWS

Home | Current Version | Previous Version | Text Only | Print | Product List | Glossary On
Versions: 1 2 3 4 5 6 7 8 9 10 11 12 13 14 15 16 17 18 19 20 21 22 23 24 25 26 27 28 29 30 31 32 33 34 35 36 37 38 39 40 41 42 43 44 45 46 47 48 49 50
000
ASHW40 PHFO 292112
RWRHI

WEATHER ROUNDUP FOR HAWAII
NATIONAL WEATHER SERVICE HONOLULU HI
1100 AM HST WED MAR 29 2017

THIS IS AN AUTOMATED REPORT THAT HAS NOT BEEN QUALITY CONTROLLED.

NOTE..."FAIR" INDICATES FEW OR NO CLOUDS BELOW 12,000 FEET WITH NO
SIGNIFICANT WEATHER AND/OR OBSTRUCTIONS TO VISIBILITY.

* - THESE SITES REPORT LIMITED FIELDS

HIZ001>004-292200-
KAUAI-NIIHAU-

CITY           SKY/WX    TMP DP  RH WIND       PRES   REMARKS
LIHUE APT      MOSUNNY   80  67  64 E10       30.15S
PORT ALLEN*      N/A     81 N/A N/A E16G23      N/A
POIPU*           N/A     81 N/A N/A NE8G14      N/A
PRINCEVILLE*     N/A     79 N/A N/A SE9G17      N/A
KOKOLE POINT*  NOT AVBL
MOLOAA DAIRY*    N/A     79  66  65 E9G17       N/A
WAIMEA HTS*    NOT AVBL
PUU OPAE*      NOT AVBL
PUU LUA*       NOT AVBL
MAKAHA RIDGE*  NOT AVBL
$$

HIZ005>011-292200-
OAHU-

CITY           SKY/WX    TMP DP  RH WIND       PRES   REMARKS
HONOLULU       MOSUNNY   83  62  49 E12G18    30.11F
KALAELOA       MOSUNNY   85  67  54 SE10G17   30.12F
KANEOHE MCB    NOT AVBL
WHEELER FIELD  MOSUNNY   79  64  59 E10       30.12F
BELLOWS*       NOT AVBL
KAHUKU*        NOT AVBL
WHEELER*       NOT AVBL
WAIANAE HARBOR NOT AVBL
DILLINGHAM*      N/A     84  68  58 S3G16       N/A
KAHUKU TRN*      N/A     79  68  69 W8G18       N/A
KAWAILOA*        N/A     75  64  69 E9G16       N/A
KII*             N/A     79  66  65 E15         N/A
MAKUA RANGE*     N/A     64  50  59 E6          N/A
OAHU FOREST NW NOT AVBL
SCHOFIELD BRK*   N/A     75  59  57 MISG        N/A
SCHOFIELD S*   NOT AVBL
WAIANAE VLY*   NOT AVBL
KUAOKALA*      NOT AVBL
HONOULIUULI*   NOT AVBL
MOKUOLOE IS*   NOT AVBL
PALEHUA*       NOT AVBL
WAIAWA PHB*    NOT AVBL
$$

HIZ012>013-292200-
MOLOKAI-

CITY           SKY/WX    TMP DP  RH WIND       PRES   REMARKS
MOLOKAI AIRPT  PTSUNNY   82  63  52 MISG      30.12S
KALAUPAPA      NOT AVBL
MAKAPULAPAI*   NOT AVBL
MOLOKAI 1*     NOT AVBL
PUU ALII*      NOT AVBL
$$

HIZ016-292200-
KAHOOLAWE-

CITY           SKY/WX    TMP DP  RH WIND       PRES   REMARKS
KAHOOLAWE*     NOT AVBL
HAKIOAWA*      NOT AVBL
HONOKANAIA*      N/A     80  65  61 NE16G26   30.06S
KANELOA*         N/A     77  68  73 E21G31    30.18F
KEALIALALO*    NOT AVBL
LUA MAKIKA*    NOT AVBL
$$

HIZ014>015-292200-
LANAI-

CITY           SKY/WX    TMP DP  RH WIND       PRES   REMARKS
LANAI CITY     CLOUDY    75  63  66 S7        30.17S
LANAI 1*       NOT AVBL
$$

HIZ017>028-292200-
MAUI-

CITY           SKY/WX    TMP DP  RH WIND       PRES   REMARKS
KAHULUI        MOSUNNY   82  65  56 NE17G24   30.10F
KAPALUA-W MAUI MOSUNNY   81  63  54 NE14      30.12F
HANA AIRPORT   NOT AVBL
HANA*            N/A     79 N/A N/A E8G15       N/A
HALEAKALA SUMM   N/A     52   5  15 SE32        N/A
MAALAEA BAY*   NOT AVBL
HALEAKALA*     NOT AVBL
KAUPO GAP*     NOT AVBL
KULA 1*          N/A     59  51  76 NW6         N/A
$$

HIZ023>026-292200-
BIG ISLAND OF HAWAII COAST AND LOWER SLOPES-

CITY           SKY/WX    TMP DP  RH WIND       PRES   REMARKS
KAILUA KONA    SUNNY     82  67  60 S13       30.09S
HILO           CLOUDY    75  69  81 W12       30.14F
HONOKAA*         N/A     75 N/A N/A VRB1        N/A
KAWAIHAE MWT*    N/A     81 N/A N/A W8          N/A
KAWAIHAE*      NOT AVBL
SOUTH POINT*     N/A     73 N/A N/A N22G32      N/A
UPOLU AIRPORT* NOT AVBL
KAMUELA*       CLEAR     75  61  60 N9        30.20S
HAKALAU*         N/A     61  53  74 S8          N/A
KALOKO-HONOKO* NOT AVBL
PALI 2*          N/A     68  59  73 W14G21      N/A
KEALAKOMO*       N/A     77  66  69 NE12G18     N/A
KAUPULEHU*     NOT AVBL
KAPAPALA*        N/A     72  64  77 E6G17       N/A
LOWER KAHUKU*  NOT AVBL
PUHE CS*       NOT AVBL
PUHO CS*       NOT AVBL
PTA KEAMUKU*     N/A     70  54  56 CALM        N/A
WAIKOLOA*      NOT AVBL
$$

HIZ027>028-292200-
BIG ISLAND OF HAWAII INTERIOR AND SUMMMITS-

CITY           SKY/WX    TMP DP  RH WIND       PRES   REMARKS
BRADSHAW FIELD MOSUNNY   67  43  41 S22G29    30.34F
MK VISITOR CEN   N/A     54  30  40 SE14        N/A
MAUNA KEA*       N/A     43 -13   9 NE16        N/A
MAUNA LOA*       N/A    N/A N/A N/A MISG        N/A
MAUNA LOA 1*   NOT AVBL
PTA KIPUKA*      N/A     70  50  49 NW7G15      N/A
PTA RANGE 17*    N/A    N/A N/A N/A NW6G23      N/A
PTA WEST*        N/A     48  36  61 NW10G18     N/A
NENE CABIN*    NOT AVBL
AHUMOA*        NOT AVBL
PTA PORTABLE*  NOT AVBL
PUU MALI*        N/A     61  54  77 NW9G16      N/A
$$

HIC003-292200-
NORTHWEST ISLANDS-

CITY           SKY/WX    TMP DP  RH WIND       PRES   REMARKS
MIDWAY ISLAND  CLOUDY    70  54  56 W21G29    30.02R
MIDWAY NOS*    NOT AVBL
FRENCH FRIGATE NOT AVBL
$$

PHZ110>124-180-292200-
BUOY REPORTS

STATION/POSITION TIME  TEMP    WIND        PRES    WAVE   SWELL
                       AIR SEA DIR/SP/G            HT/PER HT/DIR
                 (UTC) (F)     (DEG/KT/KT) (MB)    (FT/S) (FT/D)
BUOY 51001       2050   75 76  130/ 12/ 16 1020.5S   9/14   8/330
BUOY 51101       2050   76 76  130/ 12/ 16 1021.0S   9/14   8/310
BUOY 51100       NOT AVBL
BUOY 51002       2050   77 78   80/ 16/ 21 1018.1F   9/10   7/110
BUOY 51003       2050   77 78  100/ 12/ 14 1019.1S   7/13   7/310
BUOY 51004       2050      77   80/ 16/ 19 1018.7F   9/ 9   7/ 90
BARBERS PT BUOY  NOT AVBL
WAIMEA BAY BUOY  2002      76                N/A     6/15   5/320
KAILUA BAY BUOY  2034      77                N/A     6/ 9   2/ 90
LANAI BUOY       2045      78                N/A     4/12   2/260
BARBERS PT 2     NOT AVBL
PAUWELA MAUI     2039      76                N/A     6/13   3/330
HILO             2042      77                N/A     8/10   3/330
KANEOHE BAY BUOY 2055      75                N/A     5/ 9   2/ 30
HANALEI KAUAI    2052      77                N/A     9/14   8/310
KAHULUI HARBOR   2048   77 77   40/ 14/ 19 1019.4F
HONOLULU HARBOR  2048   80 78   40/  3/ 12 1020.4F
KILO NALU        NOT AVBL
HILO HARBOR      2048   72 76  230/  9/ 11 1020.6F
MOKUOLOE         2036   79 79  100/ 11/ 14 1020.3F
NAWILIWILI       2048   76      80/ 10/ 12 1020.5S
WHOTS BUOY       NOT AVBL
BUOY 51028       NOT AVBL
$$

......................KEY........................................
  SKY/WX - SKY CONDITIONS/PRESENT WEATHER
  TMP    - TEMPERATURE IN FAHRENHEIT
  DWPT   - DEWPOINT IN FAHRENHEIT
  RH     - RELATIVE HUMIDITY IN PERCENT
  WIND   - DIRECTION AND SPEED /MPH FOR ISLANDS...KTS FOR BUOYS/
  PRES   - MEAN SEA LEVEL PRESSURE IN INCHES OF HG
  VSB    - VISIBILITY IN MILES
  HX     - HEAT INDEX
  WCI    - WIND CHILL INDEX
  VRB    - VARIABLE WIND DIRECTION
  N/A    - NOT AVAILABLE




USA.gov is the U.S. government's official web portal to all federal, state and local government web resources and services.